Total_Precipitation_Accumulation
0.03 0.09 0.28 0.54 1.00 1.44 1.22 0.61 0.42 0.30 0.30 0.41 0.40 0.30 0.32 0.41 0.56 0.89 0.40 0.28 0.13 0.05 0.04 0.10 0.14 0.11 0.12 0.14 0.15 0.17 0.15 0.15 0.14 0.12 0.10 0.10 0.10 0.11 0.11 0.12 0.15 0.17 0.19 0.21 0.22 0.21 0.19 0.17 0.17
0.04 0.14 0.35 0.73 1.36 1.70 1.06 0.46 0.32 0.27 0.35 0.42 0.34 0.27 0.31 0.29 0.25 0.20 0.19 0.29 0.13 0.05 0.03 0.05 0.11 0.11 0.10 0.12 0.13 0.16 0.15 0.16 0.17 0.15 0.13 0.12 0.13 0.16 0.18 0.18 0.18 0.19 0.21 0.19 0.19 0.18 0.16 0.15 0.15
0.06 0.15 0.42 0.75 1.05 1.15 0.59 0.27 0.23 0.25 0.38 0.41 0.33 0.29 0.32 0.35 0.31 0.23 0.16 0.17 0.12 0.05 0.04 0.05 0.08 0.09 0.09 0.10 0.12 0.14 0.15 0.16 0.18 0.16 0.14 0.15 0.17 0.21 0.23 0.23 0.21 0.22 0.21 0.19 0.20 0.18 0.17 0.15 0.17
0.10 0.22 0.42 0.61 0.70 0.59 0.34 0.21 0.21 0.26 0.37 0.33 0.29 0.38 0.41 0.45 0.28 0.22 0.19 0.14 0.11 0.08 0.06 0.07 0.09 0.09 0.09 0.10 0.11 0.13 0.16 0.18 0.18 0.15 0.16 0.17 0.21 0.23 0.23 0.21 0.21 0.22 0.19 0.19 0.19 0.18 0.18 0.17 0.19
0.12 0.29 0.49 0.60 0.51 0.35 0.25 0.22 0.23 0.24 0.23 0.31 0.35 0.53 0.54 0.48 0.31 0.37 0.37 0.23 0.11 0.10 0.11 0.12 0.13 0.12 0.12 0.12 0.12 0.14 0.15 0.16 0.17 0.16 0.17 0.19 0.23 0.23 0.22 0.21 0.22 0.21 0.18 0.19 0.20 0.21 0.18 0.20 0.22
0.13 0.27 0.38 0.41 0.31 0.21 0.23 0.22 0.20 0.20 0.26 0.36 0.46 0.48 0.57 0.48 0.41 0.59 0.54 0.39 0.21 0.16 0.18 0.20 0.21 0.19 0.17 0.15 0.14 0.15 0.17 0.18 0.20 0.21 0.20 0.20 0.23 0.25 0.24 0.23 0.23 0.22 0.19 0.19 0.21 0.23 0.22 0.24 0.27
0.12 0.20 0.25 0.21 0.18 0.17 0.18 0.17 0.18 0.20 0.33 0.42 0.48 0.58 0.73 0.76 0.60 0.59 0.66 0.64 0.40 0.38 0.47 0.40 0.28 0.24 0.24 0.24 0.22 0.21 0.23 0.25 0.25 0.25 0.23 0.24 0.24 0.27 0.27 0.29 0.28 0.27 0.25 0.26 0.24 0.22 0.26 0.29 0.32
0.06 0.11 0.12 0.10 0.09 0.12 0.11 0.14 0.17 0.20 0.28 0.44 0.55 0.71 0.99 0.91 0.76 0.74 0.80 0.93 0.67 0.56 0.57 0.52 0.39 0.34 0.27 0.23 0.26 0.28 0.29 0.30 0.29 0.27 0.27 0.28 0.27 0.29 0.33 0.33 0.40 0.40 0.42 0.45 0.42 0.35 0.34 0.39 0.43
0.04 0.09 0.08 0.05 0.05 0.07 0.07 0.10 0.14 0.19 0.27 0.35 0.57 0.76 0.79 0.72 0.89 0.94 1.09 1.28 1.23 0.99 0.87 0.74 0.49 0.39 0.37 0.31 0.29 0.37 0.37 0.36 0.36 0.39 0.38 0.45 0.55 0.59 0.72 0.64 0.74 0.70 0.72 0.73 0.72 0.67 0.66 0.68 0.58
0.03 0.05 0.05 0.03 0.03 0.05 0.05 0.08 0.13 0.29 0.45 0.71 0.96 0.93 0.73 0.73 1.04 1.23 1.40 1.64 1.67 1.51 1.32 1.06 0.77 0.61 0.54 0.45 0.47 0.53 0.53 0.63 0.64 0.79 0.85 1.04 1.24 1.20 0.92 1.03 1.25 1.29 1.29 1.23 1.24 1.37 1.23 1.05 0.91
0.02 0.02 0.02 0.03 0.03 0.03 0.04 0.07 0.10 0.22 0.65 1.15 1.39 1.32 1.13 1.00 1.24 1.59 1.90 2.19 1.97 1.68 1.51 1.38 1.15 0.93 0.73 0.73 0.72 0.78 0.91 1.20 1.09 1.04 1.17 1.50 1.39 1.16 1.03 1.18 1.48 1.75 1.74 1.67 1.77 1.92 1.56 1.65 1.83
0.01 0.01 0.01 0.01 0.02 0.02 0.03 0.05 0.14 0.24 0.64 0.91 1.14 1.25 1.29 1.29 1.37 1.59 1.91 2.17 2.37 2.25 2.01 1.78 1.63 1.39 1.31 1.20 1.08 0.98 1.03 1.16 1.16 1.27 1.21 1.52 1.62 1.49 1.44 1.58 1.67 1.88 2.11 2.45 2.35 2.48 2.36 2.29 2.15
0.00 0.01 0.01 0.01 0.01 0.02 0.03 0.08 0.17 0.28 0.55 0.61 0.69 0.85 1.15 1.39 1.71 2.00 2.16 2.50 2.61 2.69 2.47 2.32 2.17 2.06 2.01 1.82 1.61 1.29 1.33 1.28 1.31 1.50 1.49 1.61 1.86 1.93 2.00 1.98 1.91 1.81 2.17 2.59 2.80 2.53 2.81 2.83 2.44
0.00 0.00 0.00 0.01 0.02 0.03 0.04 0.09 0.19 0.34 0.49 0.55 0.62 0.82 1.10 1.44 1.72 2.14 2.43 2.83 2.83 2.86 2.96 3.04 2.90 2.77 2.74 2.51 2.30 2.03 1.84 1.87 1.82 1.83 1.96 2.10 2.28 2.42 2.46 2.32 2.24 2.03 2.05 2.35 2.58 2.59 2.82 2.70 2.56
0.00 0.01 0.04 0.04 0.04 0.06 0.12 0.20 0.37 0.50 0.56 0.75 0.84 1.06 1.24 1.56 1.90 2.01 2.19 2.45 2.75 3.02 3.45 3.71 3.74 3.63 3.57 3.43 3.09 2.72 2.52 2.52 2.63 2.65 2.68 2.62 2.69 2.89 2.76 2.53 2.23 2.13 2.18 2.31 2.32 2.35 2.44 2.31 2.23
0.01 0.03 0.11 0.11 0.07 0.09 0.14 0.40 0.55 0.59 0.72 0.93 0.98 1.20 1.50 1.60 1.94 2.07 2.09 2.28 2.83 3.30 3.87 4.17 4.32 4.50 4.36 4.27 3.91 3.44 3.16 3.02 2.96 3.01 3.00 2.89 2.90 2.80 2.71 2.38 2.04 2.10 2.22 2.21 2.19 2.07 2.17 2.20 2.27
0.02 0.06 0.12 0.19 0.11 0.12 0.19 0.49 0.60 0.64 0.85 1.01 1.16 1.18 1.35 1.58 2.01 2.27 2.37 2.51 2.95 3.59 4.28 4.67 5.12 5.38 5.25 4.92 4.40 3.94 3.78 3.55 3.33 3.28 3.16 2.99 2.78 2.62 2.65 2.33 2.18 2.10 2.12 2.03 1.88 2.08 2.21 2.22 2.27
0.03 0.05 0.12 0.22 0.15 0.14 0.26 0.47 0.68 0.77 0.92 1.10 1.17 1.16 1.30 1.59 1.80 2.12 2.39 2.78 3.14 3.69 4.45 5.05 5.56 5.72 5.43 4.88 4.43 4.25 4.07 3.72 3.43 3.10 2.83 2.55 2.41 2.24 2.34 2.11 2.04 2.12 2.15 1.99 1.99 2.18 2.19 1.99 2.09
0.03 0.05 0.14 0.22 0.14 0.16 0.29 0.46 0.68 0.85 0.99 1.06 1.25 1.25 1.44 1.69 1.84 2.21 2.54 2.97 3.40 3.92 4.61 5.18 5.54 5.48 5.24 4.85 4.46 4.16 3.67 3.33 3.02 2.69 2.48 2.23 1.97 1.87 2.07 1.88 1.98 2.00 1.93 1.76 1.73 1.81 1.81 1.59 1.87
0.05 0.08 0.17 0.21 0.14 0.15 0.30 0.50 0.78 0.87 0.85 0.89 1.12 1.23 1.30 1.49 1.78 2.10 2.60 2.89 3.21 3.67 4.16 4.55 4.50 4.17 4.02 3.96 3.83 3.55 3.54 3.39 3.17 2.94 2.68 2.27 2.05 1.88 1.72 1.79 1.71 1.71 1.77 1.58 1.48 1.62 1.62 1.40 1.64
0.06 0.08 0.14 0.19 0.22 0.23 0.33 0.66 0.90 0.93 0.84 0.80 0.84 0.95 1.05 1.17 1.40 1.71 2.26 2.56 2.71 3.07 3.37 3.42 3.29 3.07 3.06 3.10 3.02 3.06 3.27 3.30 3.20 3.01 2.73 2.43 2.26 2.12 1.95 1.79 1.63 1.57 1.48 1.46 1.42 1.49 1.53 1.44 1.38
0.09 0.06 0.07 0.10 0.19 0.42 0.47 0.83 1.09 1.21 1.14 0.93 0.83 0.93 0.98 1.05 1.10 1.38 1.72 1.90 2.13 2.29 2.44 2.48 2.52 2.48 2.46 2.50 2.42 2.30 2.34 2.48 2.64 2.85 2.87 2.83 2.61 2.35 2.09 1.90 1.66 1.43 1.30 1.41 1.20 1.25 1.44 1.52 1.30
0.06 0.05 0.06 0.09 0.15 0.30 0.42 0.65 1.06 1.32 1.46 1.13 0.90 0.83 0.77 0.89 1.08 1.23 1.30 1.43 1.58 1.58 1.73 1.80 2.07 2.34 2.41 2.39 2.44 2.30 2.04 1.97 2.00 2.13 2.26 2.25 2.23 2.09 1.84 1.72 1.61 1.37 1.19 1.19 1.18 1.32 1.33 1.33 1.25
0.06 0.10 0.16 0.24 0.37 0.60 0.57 0.62 0.96 1.14 1.25 1.00 0.84 0.82 0.67 0.66 0.82 0.96 1.09 1.20 1.23 1.21 1.37 1.58 1.87 2.22 2.41 2.45 2.39 2.29 2.14 2.08 1.96 1.90 1.87 1.74 1.77 1.74 1.63 1.53 1.49 1.32 1.20 1.20 1.17 1.24 1.28 1.32 1.35
0.08 0.15 0.48 0.82 1.15 1.18 0.68 0.67 0.89 0.88 0.83 0.86 0.73 0.68 0.70 0.59 0.58 0.60 0.72 0.84 0.85 0.87 0.97 1.21 1.44 1.66 1.85 1.99 1.99 1.88 1.94 2.05 1.91 1.74 1.60 1.47 1.38 1.36 1.38 1.44 1.46 1.34 1.27 1.31 1.39 1.36 1.27 1.29 1.36
0.08 0.12 0.36 0.60 0.77 0.89 0.72 1.06 1.14 0.84 0.72 0.61 0.51 0.48 0.53 0.44 0.39 0.37 0.43 0.53 0.63 0.65 0.68 0.81 1.07 1.26 1.44 1.56 1.67 1.76 1.91 2.01 1.94 2.01 1.78 1.57 1.36 1.25 1.28 1.44 1.49 1.41 1.32 1.25 1.40 1.36 1.36 1.39 1.38
0.09 0.08 0.13 0.21 0.35 0.60 0.85 1.07 1.02 0.82 0.81 0.61 0.43 0.36 0.36 0.32 0.28 0.28 0.33 0.37 0.41 0.46 0.53 0.59 0.75 0.94 1.16 1.35 1.50 1.58 1.56 1.57 1.65 1.76 1.72 1.56 1.51 1.36 1.40 1.44 1.53 1.56 1.57 1.52 1.54 1.44 1.47 1.61 1.61
0.10 0.09 0.10 0.16 0.29 0.46 0.75 1.11 1.17 1.01 0.90 0.72 0.54 0.36 0.30 0.29 0.28 0.27 0.27 0.29 0.29 0.33 0.45 0.56 0.63 0.77 1.10 1.41 1.55 1.45 1.40 1.30 1.40 1.45 1.46 1.50 1.49 1.48 1.48 1.44 1.46 1.54 1.57 1.55 1.60 1.58 1.62 1.77 1.79
0.14 0.11 0.11 0.14 0.17 0.30 0.64 0.85 0.73 0.76 0.72 0.63 0.54 0.40 0.34 0.31 0.30 0.29 0.24 0.23 0.28 0.28 0.38 0.57 0.69 0.84 1.12 1.42 1.60 1.55 1.39 1.34 1.41 1.32 1.27 1.37 1.43 1.45 1.46 1.41 1.37 1.34 1.40 1.56 1.70 1.67 1.71 1.77 1.82
0.14 0.14 0.14 0.20 0.19 0.22 0.35 0.56 0.43 0.50 0.60 0.58 0.41 0.31 0.27 0.21 0.24 0.23 0.17 0.18 0.21 0.24 0.35 0.67 0.98 1.32 1.49 1.72 1.94 1.91 1.58 1.41 1.32 1.14 1.09 1.21 1.37 1.43 1.43 1.39 1.33 1.29 1.39 1.61 1.73 1.78 1.93 2.01 1.95